Location: Unspecified
(0.0000°N, 0.0000°E)
Time: 12:37:51
(UTC+01:00)

Hubble Space Telescope - Visible Passes

Search period start: 08 May 2026 00:00
Search period end: 18 May 2026 00:00
Orbit: 473 x 476 km, 28.5° (Epoch: 7 May)

Date Brightness Start Highest point End Pass type
(mag) Time Alt. Az. Time Alt. Az. Time Alt. Az.
8 May 2.3 19:53:04 10° NNW 19:55:52 20° NNE 19:57:21 16° ENE visible
9 May 2.4 19:21:39 10° NNW 19:24:26 20° NNE 19:27:12 10° ENE visible
9 May 3.0 21:00:27 10° WNW 21:01:54 22° W 21:01:54 22° W visible
10 May 1.0 20:28:59 10° WNW 20:32:25 53° SW 20:32:25 53° SW visible
11 May 0.9 19:57:31 10° WNW 20:01:12 55° SSW 20:02:57 27° SE visible
12 May 2.6 06:03:05 10° SSW 06:05:49 19° SSE 06:08:33 10° ESE visible
12 May 0.9 19:26:03 10° WNW 19:29:43 57° SSW 19:33:25 10° SE visible
13 May 2.5 05:33:19 17° S 05:34:20 19° SSE 05:37:03 10° ESE visible
14 May 2.9 05:03:49 17° SE 05:03:49 17° SE 05:05:32 10° ESE visible
15 May 0.7 06:08:19 17° WSW 06:11:03 59° NNW 06:14:44 10° NE visible
16 May 0.6 05:38:46 47° W 05:39:32 61° NNW 05:43:14 10° NE visible
17 May 1.7 05:09:09 39° NNE 05:09:09 39° NNE 05:11:43 10° NE visible
